TimeCDT,TemperatureF,Dew PointF,Humidity,Sea Level PressureIn,VisibilityMPH,Wind Direction,Wind SpeedMPH,Gust SpeedMPH,PrecipitationIn,Events,Conditions,WindDirDegrees,DateUTC
12:53 AM,55.0,46.0,72,29.97,10.0,SSE,3.5,-,N/A,,Clear,160,2012-11-03 05:53:00
1:53 AM,54.0,46.0,75,29.97,10.0,SE,3.5,-,N/A,,Clear,130,2012-11-03 06:53:00
2:53 AM,57.9,46.0,65,29.96,10.0,SSE,3.5,-,N/A,,Clear,160,2012-11-03 07:53:00
3:53 AM,51.1,46.0,83,29.98,10.0,Calm,Calm,-,N/A,,Clear,0,2012-11-03 08:53:00
4:53 AM,52.0,46.9,83,29.98,10.0,Calm,Calm,-,N/A,,Clear,0,2012-11-03 09:53:00
5:53 AM,50.0,46.9,89,29.99,10.0,South,5.8,-,N/A,,Clear,180,2012-11-03 10:53:00
6:53 AM,52.0,50.0,93,30.00,8.0,South,5.8,-,N/A,,Clear,190,2012-11-03 11:53:00
7:53 AM,55.0,53.1,93,30.01,6.0,South,6.9,-,N/A,,Clear,190,2012-11-03 12:53:00
8:53 AM,63.0,57.9,84,30.02,10.0,SSW,8.1,-,N/A,,Clear,200,2012-11-03 13:53:00
9:53 AM,69.1,59.0,70,30.01,10.0,WSW,10.4,-,N/A,,Clear,240,2012-11-03 14:53:00
10:53 AM,75.0,60.1,60,30.01,10.0,WSW,9.2,19.6,N/A,,Clear,240,2012-11-03 15:53:00
11:53 AM,78.1,60.1,54,29.99,10.0,SW,10.4,20.7,N/A,,Clear,230,2012-11-03 16:53:00
12:53 PM,80.1,59.0,48,29.96,10.0,WSW,11.5,26.5,N/A,,Clear,250,2012-11-03 17:53:00
1:53 PM,81.0,57.9,45,29.94,10.0,West,15.0,25.3,N/A,,Clear,260,2012-11-03 18:53:00
2:53 PM,82.0,59.0,45,29.92,10.0,WSW,12.7,21.9,N/A,,Clear,240,2012-11-03 19:53:00
3:53 PM,81.0,59.0,47,29.92,10.0,WSW,9.2,20.7,N/A,,Mostly Cloudy,250,2012-11-03 20:53:00
4:53 PM,79.0,61.0,54,29.91,10.0,WSW,9.2,17.3,0.00,Rain-Thunderstorm,Light Thunderstorms and Rain,250,2012-11-03 21:53:00
5:53 PM,70.0,63.0,78,29.92,10.0,Calm,Calm,-,0.03,Thunderstorm,Thunderstorm,0,2012-11-03 22:53:00
6:41 PM,68.0,53.6,60,29.97,10.0,Variable,3.5,-,N/A,,Overcast,0,2012-11-03 23:41:00
6:53 PM,68.0,53.1,59,29.97,10.0,Calm,Calm,-,N/A,Thunderstorm,Mostly Cloudy,0,2012-11-03 23:53:00
7:09 PM,66.2,53.6,64,29.98,10.0,Calm,Calm,-,N/A,,Overcast,0,2012-11-04 00:09:00
7:53 PM,64.9,52.0,63,30.01,10.0,NNW,4.6,-,N/A,,Mostly Cloudy,330,2012-11-04 00:53:00
8:53 PM,64.0,48.0,56,30.04,10.0,North,11.5,23.0,0.01,,Overcast,360,2012-11-04 01:53:00
9:53 PM,57.0,42.1,57,30.07,10.0,North,13.8,-,N/A,,Scattered Clouds,10,2012-11-04 02:53:00
10:53 PM,54.0,41.0,62,30.12,10.0,NNE,10.4,-,N/A,,Clear,30,2012-11-04 03:53:00
11:53 PM,52.0,39.0,61,30.11,10.0,NNE,15.0,-,N/A,,Clear,20,2012-11-04 04:53:00